Location: Le Vaud
(46.4779°N, 6.2346°E)
Time: 00:25:32
(UTC+00:00)

IDEFIX/ARIANE 42P - Pass Details

Date: 18 February 2020
Orbit: 784 x 804 km, 98.3° (Epoch: 04 April)

Event Time Altitude Azimuth Distance (km) Brightness Sun altitude
Rises 03:17:23 0° 13° (NNE) 3,318 6.2 -34.3°
Reaches altitude 10° 03:19:44 10° 13° (NNE) 2,381 5.4 -33.9°
Enters shadow 03:21:52 25° 12° (NNE) 1,563 4.3 -33.5°
